Simultaneous Nadir Overpasses (SNOs) Predictions

Prediction of SNOs between METOP-A and NPP Satellite Orbit:

Table of predicted SNOs for the next 14.0 days since TLE Epoch: 6/26/2015
Index Date (METOP-A) Time (METOP-A) Lat,Lon (METOP-A) SZA (METOP-A ) Date (NPP) Time (NPP) Lat,Lon (NPP) SZA (NPP ) Distance(km) Time Diff (sec)
1 06/26/2015 19:43:14 72.77,-124.13 49.58 06/26/2015 19:44:25 72.82,-123.23 49.57 30.12 71
2 06/26/2015 20:33:57 -72.70, 43.07 130.48 06/26/2015 20:35:08 -72.77, 44.18 130.48 37.66 71
3 06/26/2015 21:24:41 72.49,-150.04 49.34 06/26/2015 21:25:49 72.52,-147.99 49.25 68.38 68
4 06/26/2015 22:15:23 -72.42, 17.16 130.72 06/26/2015 22:16:31 -72.48, 19.41 130.80 75.58 68




NCC Satellite Simultaneous Nadir Overpasses (SNOs) Prediction Service
